Perry, IA

4:29 AM CST on January 22, 2017 (GMT -0600)
Perry Municipal

Weather History for KPRO - January, 2013

Change the Weather History Date:

Sunday, January 13, 2013

  Actual Average Record
Temperature  
Mean Temperature 12 °F -  
Max Temperature 19 °F 26 °F 53 °F (1987)
Min Temperature 6 °F 7 °F -24 °F (1974)
Degree Days  
Heating Degree Days 52    
Moisture  
Dew Point 5 °F    
Average Humidity 75    
Maximum Humidity 86    
Minimum Humidity 62    
Precipitation  
Precipitation 0.00 in - - ()
Sea Level Pressure  
Sea Level Pressure 30.18 in    
Wind  
Wind Speed 11 mph (NW)    
Max Wind Speed 17 mph    
Max Gust Speed 21 mph    
Visibility 10 miles    
Events      
Averages and records for this station are not official NWS values.
T = Trace of Precipitation, MM = Missing Value Source: NWS Daily Summary

Daily Weather History Graph

Daily Weather History Graph

Search for Another Location

Airport or City:

Trip Planner

Search our weather history database for the weather conditions in past years. The results will help you decide how hot, cold, wet, or windy it might be!

Date:

Astronomy

Jan. 13, 2013 Rise Set
Actual Time 7:42 AM CST 5:08 PM CST
Civil Twilight 7:11 AM CST 5:39 PM CST
Nautical Twilight 6:37 AM CST 6:14 PM CST
Astronomical Twilight 6:03 AM CST 6:47 PM CST
Moon 8:38 AM CST (1/13) 7:51 PM CST (1/13)
Length of Visible Light 10h 28m
Length of Day
9h 26m
Waxing Crescent, 5% of the Moon is Illuminated
Jan 13
Waxing Crescent
Jan 18
First Quarter
Jan 26
Full
Feb 3
Last Quarter
Feb 10
New

Hourly Weather History & Observations

Time (CST) Temp. Windchill Dew Point Humidity Pressure Visibility Wind Dir Wind Speed Gust Speed Precip Events Conditions
12:15 AM 11.3 °F -3.6 °F 4.5 °F 74% 30.06 in 10.0 mi NW 12.7 mph - N/A   Clear
12:35 AM 11.1 °F -5.1 °F 4.3 °F 74% 30.07 in 10.0 mi NNW 15.0 mph - N/A   Scattered Clouds
12:55 AM 10.8 °F -6.2 °F 3.6 °F 73% 30.06 in 10.0 mi NW 16.1 mph - N/A   Scattered Clouds
1:15 AM 10.2 °F -4.3 °F 3.7 °F 75% 30.08 in 10.0 mi NNW 11.5 mph - N/A   Clear
1:35 AM 10.2 °F -4.3 °F 3.2 °F 73% 30.10 in 10.0 mi NW 11.5 mph 19.6 mph N/A   Clear
1:55 AM 9.9 °F -6.1 °F 3.4 °F 75% 30.10 in 10.0 mi NW 13.8 mph - N/A   Clear
2:15 AM 9.9 °F -4.7 °F 3.4 °F 75% 30.09 in 10.0 mi NNW 11.5 mph - N/A   Clear
2:35 AM 9.5 °F -5.9 °F 3.4 °F 76% 30.09 in 10.0 mi NNW 12.7 mph - N/A   Clear
2:55 AM 9.3 °F -5.4 °F 3.7 °F 78% 30.09 in 10.0 mi NNW 11.5 mph - N/A   Clear
3:15 AM 9.1 °F -5.6 °F 3.7 °F 79% 30.09 in 10.0 mi NNW 11.5 mph - N/A   Clear
3:35 AM 9.0 °F -5.9 °F 3.7 °F 79% 30.09 in 10.0 mi NNW 11.5 mph - N/A   Clear
3:55 AM 9.0 °F -4.2 °F 3.9 °F 80% 30.09 in 10.0 mi NW 9.2 mph - N/A   Mostly Cloudy
4:15 AM 9.0 °F -5.1 °F 3.7 °F 79% 30.10 in 10.0 mi NW 10.4 mph - N/A   Overcast
4:35 AM 8.4 °F -5.7 °F 3.4 °F 80% 30.11 in 10.0 mi NW 10.4 mph - N/A   Mostly Cloudy
4:55 AM 8.1 °F -6.2 °F 3.0 °F 80% 30.11 in 10.0 mi WNW 10.4 mph - N/A   Clear
5:15 AM 7.7 °F -5.8 °F 2.8 °F 81% 30.11 in 10.0 mi NW 9.2 mph - N/A   Clear
5:35 AM 7.5 °F -7.7 °F 3.0 °F 82% 30.11 in 10.0 mi WNW 11.5 mph - N/A   Clear
5:55 AM 7.2 °F -6.4 °F 2.1 °F 80% 30.11 in 10.0 mi NW 9.2 mph - N/A   Clear
6:15 AM 6.8 °F -6.9 °F 1.8 °F 80% 30.13 in 10.0 mi NW 9.2 mph - N/A   Clear
6:35 AM 6.8 °F -5.9 °F 1.6 °F 79% 30.14 in 10.0 mi NW 8.1 mph - N/A   Clear
6:55 AM 6.6 °F -6.1 °F 1.4 °F 79% 30.16 in 10.0 mi WNW 8.1 mph - N/A   Clear
7:15 AM 6.6 °F -7.1 °F 1.6 °F 80% 30.16 in 10.0 mi NW 9.2 mph - N/A   Clear
7:35 AM 6.4 °F -7.3 °F 1.8 °F 81% 30.16 in 10.0 mi WNW 9.2 mph - N/A   Clear
7:55 AM 6.4 °F -7.3 °F 1.0 °F 78% 30.18 in 10.0 mi NW 9.2 mph - N/A   Clear
8:15 AM 6.6 °F -7.1 °F 0.5 °F 76% 30.17 in 10.0 mi NW 9.2 mph - N/A   Clear
8:35 AM 7.0 °F -7.5 °F 0.3 °F 74% 30.18 in 10.0 mi NW 10.4 mph - N/A   Clear
8:55 AM 7.3 °F -8.6 °F 0.1 °F 72% 30.18 in 10.0 mi NW 12.7 mph - N/A   Clear
9:15 AM 8.4 °F -8.6 °F 1.8 °F 74% 30.18 in 10.0 mi NW 15.0 mph - N/A   Clear
9:35 AM 9.0 °F -7.3 °F 2.3 °F 74% 30.18 in 10.0 mi NW 13.8 mph - N/A   Clear
9:55 AM 9.5 °F -5.9 °F 2.3 °F 73% 30.18 in 10.0 mi WNW 12.7 mph - N/A   Scattered Clouds
10:15 AM 9.9 °F -5.5 °F 2.8 °F 73% 30.18 in 10.0 mi WNW 12.7 mph 18.4 mph N/A   Scattered Clouds
10:35 AM 11.3 °F -4.3 °F 3.9 °F 72% 30.18 in 10.0 mi NW 13.8 mph 17.3 mph N/A   Clear
10:55 AM 12.2 °F -2.5 °F 4.8 °F 72% 30.18 in 10.0 mi NW 12.7 mph 20.7 mph N/A   Scattered Clouds
11:35 AM 13.1 °F -0.7 °F 5.5 °F 72% 30.17 in 10.0 mi NW 11.5 mph - N/A   Mostly Cloudy
11:55 AM 13.8 °F 0.2 °F 6.1 °F 71% 30.16 in 10.0 mi NW 11.5 mph - N/A   Mostly Cloudy
12:15 PM 14.4 °F 0.2 °F 7.3 °F 74% 30.16 in 10.0 mi WNW 12.7 mph - N/A   Mostly Cloudy
12:35 PM 15.1 °F -0.1 °F 7.5 °F 72% 30.15 in 10.0 mi NW 15.0 mph - N/A   Overcast
12:55 PM 15.3 °F 3.5 °F 7.7 °F 72% 30.15 in 10.0 mi WNW 9.2 mph 20.7 mph N/A   Overcast
1:15 PM 16.0 °F 3.6 °F 8.4 °F 72% 30.15 in 10.0 mi NW 10.4 mph - N/A   Overcast
1:35 PM 16.3 °F 3.4 °F 8.8 °F 72% 30.15 in 10.0 mi WNW 11.5 mph 20.7 mph N/A   Overcast
1:55 PM 16.7 °F 3.8 °F 9.1 °F 72% 30.16 in 10.0 mi WNW 11.5 mph 18.4 mph N/A   Overcast
2:15 PM 17.6 °F 3.7 °F 9.5 °F 71% 30.16 in 10.0 mi WNW 13.8 mph 20.7 mph N/A   Overcast
2:35 PM 18.1 °F 4.4 °F 9.9 °F 70% 30.17 in 10.0 mi WNW 13.8 mph - N/A   Overcast
2:55 PM 18.9 °F 5.9 °F 9.5 °F 67% 30.18 in 10.0 mi WNW 12.7 mph - N/A   Mostly Cloudy
3:15 PM 18.9 °F 5.3 °F 10.0 °F 69% 30.18 in 10.0 mi NW 13.8 mph - N/A   Overcast
3:35 PM 19.2 °F 4.3 °F 9.5 °F 66% 30.19 in 10.0 mi West 17.3 mph - N/A   Overcast
3:55 PM 19.0 °F 6.8 °F 9.5 °F 66% 30.19 in 10.0 mi NW 11.5 mph - N/A   Mostly Cloudy
4:15 PM 18.9 °F 7.2 °F 8.8 °F 65% 30.20 in 10.0 mi WNW 10.4 mph - N/A   Scattered Clouds
4:35 PM 18.3 °F 6.6 °F 7.3 °F 62% 30.21 in 10.0 mi WNW 10.4 mph - N/A   Clear
4:55 PM 17.6 °F 5.0 °F 7.2 °F 64% 30.22 in 10.0 mi WNW 11.5 mph - N/A   Clear
5:15 PM 16.7 °F 4.5 °F 6.4 °F 64% 30.22 in 10.0 mi NW 10.4 mph - N/A   Clear
5:35 PM 16.2 °F 5.5 °F 6.1 °F 65% 30.22 in 10.0 mi NW 8.1 mph - N/A   Clear
5:55 PM 15.4 °F 4.6 °F 6.3 °F 67% 30.23 in 10.0 mi WNW 8.1 mph - N/A   Clear
6:15 PM 14.7 °F 3.8 °F 6.6 °F 70% 30.23 in 10.0 mi WNW 8.1 mph - N/A   Clear
6:35 PM 14.9 °F 4.0 °F 6.1 °F 68% 30.24 in 10.0 mi WNW 8.1 mph - N/A   Clear
6:55 PM 14.9 °F 2.3 °F 5.9 °F 68% 30.24 in 10.0 mi WNW 10.4 mph - N/A   Clear
7:15 PM 14.0 °F 2.9 °F 5.9 °F 70% 30.24 in 10.0 mi WNW 8.1 mph - N/A   Clear
7:35 PM 13.1 °F 2.8 °F 6.4 °F 75% 30.26 in 10.0 mi West 6.9 mph - N/A   Clear
7:55 PM 11.1 °F 1.7 °F 6.3 °F 81% 30.27 in 10.0 mi West 5.8 mph - N/A   Clear
8:15 PM 11.1 °F 0.4 °F 6.4 °F 81% 30.27 in 10.0 mi West 6.9 mph - N/A   Clear
8:35 PM 10.0 °F -0.9 °F 5.7 °F 83% 30.27 in 10.0 mi West 6.9 mph - N/A   Clear
8:55 PM 9.7 °F -2.4 °F 5.9 °F 85% 30.27 in 10.0 mi West 8.1 mph - N/A   Clear
9:15 PM 10.6 °F -2.2 °F 5.9 °F 81% 30.27 in 10.0 mi WNW 9.2 mph - N/A   Clear
9:35 PM 10.8 °F 0.0 °F 5.9 °F 81% 30.28 in 10.0 mi West 6.9 mph - N/A   Clear
9:55 PM 9.7 °F -2.4 °F 5.7 °F 84% 30.28 in 10.0 mi West 8.1 mph - N/A   Clear
10:15 PM 9.9 °F -1.1 °F 5.7 °F 83% 30.28 in 10.0 mi WNW 6.9 mph - N/A   Clear
10:35 PM 10.8 °F 0.0 °F 5.7 °F 80% 30.29 in 10.0 mi West 6.9 mph - N/A   Clear
10:55 PM 8.1 °F -3.2 °F 4.6 °F 86% 30.31 in 10.0 mi West 6.9 mph - N/A   Clear
11:15 PM 8.8 °F -2.4 °F 5.2 °F 85% 30.31 in 10.0 mi West 6.9 mph - N/A   Clear
11:35 PM 8.6 °F -4.7 °F 5.0 °F 85% 30.31 in 10.0 mi West 9.2 mph - N/A   Clear
11:55 PM 8.6 °F -1.3 °F 5.0 °F 85% 30.31 in 10.0 mi WNW 5.8 mph - N/A   Clear